Skip Page Navigation
NASA JPL Caltech
NASA Logo - Jet Propulsion Laboratory + View the NASA Portal
+ Center for Near-Earth Object Studies
JPL Home Earth Solar System Stars & Galaxies Technology
JPL Solar System Dynamics
BODIES ORBITS EPHEMERIDES TOOLS PHYSICAL DATA DISCOVERY FAQ SITE MAP
JPL Small-Body Database Browser
Search: [ help ]  
175298 (2005 LK37)
Classification: Main-belt Asteroid          SPK-ID: 2175298
Ephemeris | Orbit Diagram | Orbital Elements | Mission Design | Physical Parameters | Discovery Circumstances | Close-Approach Data ]

[ show orbit diagram ]
Orbital Elements at Epoch 2459200.5 (2020-Dec-17.0) TDB
Reference: JPL 16 (heliocentric ecliptic J2000)
 Element Value Uncertainty (1-sigma)   Units 
e .07062772248706581 3.907e-08  
a 2.585626140778108 1.7978e-08 au
q 2.403009255251929 1.0101e-07 au
i 3.054927872303241 4.4584e-06 deg
node 258.8360489548967 9.8877e-05 deg
peri 10.48688108076871 0.00010673 deg
M 239.8773119242093 4.2658e-05 deg
tp 2459707.221770010806
(2022-May-07.72177001)
0.00018194 TDB
period 1518.612679469789
4.16
1.5839e-05
4.336e-08
d
yr
n .2370584711077817 2.4725e-09 deg/d
Q 2.768243026304287 1.9248e-08 au
  Orbit Determination Parameters
   # obs. used (total)      278  
   data-arc span      6212 days (17.01 yr)  
   first obs. used      2004-01-15  
   last obs. used      2021-01-17  
   planetary ephem.      DE431  
   SB-pert. ephem.      SB431-N16  
   condition code      0  
   norm. resid. RMS      .53944  
   source      ORB  
   producer      Otto Matic  
   solution date      2021-Feb-24 11:32:56  

Additional Information
 Earth MOID = 1.38518 au 
 Jupiter MOID = 2.28358 au 
 T_jup = 3.417 
[ show covariance matrix ]

Ephemeris | Orbit Diagram | Orbital Elements | Mission Design | Physical Parameters | Discovery Circumstances | Close-Approach Data ]

Physical Parameter Table
Parameter Symbol Value Units Sigma Reference Notes
absolute magnitude H 16.4   n/a MPO454204  

175298 (2005 LK37)          Discovered 2005-Jun-11 by Spacewatch at Kitt Peak
Reference: 20080122/Numbers.arcLast Updated: 2008-01-28

[ show close-approach data ]
Alternate Designations
 2005 LK37 = 2004 AU23 
Ephemeris | Orbit Diagram | Orbital Elements | Mission Design | Physical Parameters | Discovery Circumstances | Close-Approach Data ]
ABOUT SSD CREDITS/AWARDS PRIVACY/COPYRIGHT GLOSSARY LINKS
FirstGov 2021-Apr-13 12:09 UT
(server date/time)  
NASA Home Page
Site Manager:   Ryan S. Park
Webmaster  Alan B. Chamberlin